GW5009 Weather Reports


Display with metric or nautical units.
time (UTC)temp
F
wind
direction
speed
MPH
gust
MPH
rain 1hr
in
rain 24hr
in
rain mn
in
humidity
%
barometer
mb
20260906060027 80 24 0.0 0.0 0.00 0.00 0.00 82 1011.0
20260906054612 80 24 0.0 0.0 0.00 0.00 0.00 82 1011.1
20260906054500 80 24 0.0 0.0 0.00 0.00 0.00 82 1011.1
20260906053024 80 24 0.0 1.0 0.00 0.00 0.00 81 1011.1
20260906051542 80 24 0.0 1.0 0.00 0.00 0.00 81 1011.0
20260906050058 80 105 0.0 2.0 0.00 0.00 0.00 80 1010.9
20260906044519 81 34 0.0 0.0 0.00 0.00 0.00 79 1010.9
20260906043034 81 34 0.0 0.0 0.00 0.00 0.00 79 1010.8
20260906041550 81 34 0.0 0.0 0.00 0.00 0.00 78 1010.8
20260906040018 81 34 0.0 0.0 0.00 0.00 0.00 77 1010.7
20260906034603 82 34 0.0 0.0 0.00 0.00 0.00 76 1010.8
20260906033018 82 34 0.0 0.0 0.00 0.00 0.00 75 1010.9
20260906031536 82 34 0.0 0.0 0.00 0.00 0.00 75 1010.8
20260906030055 83 34 0.0 0.0 0.00 0.00 0.00 74 1010.7
20260906024517 83 34 0.0 0.0 0.00 0.00 0.00 72 1010.9
20260906023053 84 34 0.0 0.0 0.00 0.00 0.00 71 1010.8
20260906021510 84 34 0.0 0.0 0.00 0.00 0.00 71 1010.7
20260906020036 84 34 0.0 0.0 0.00 0.00 0.00 70 1010.4
20260906014553 85 34 0.0 0.0 0.00 0.00 0.00 67 1010.2
20260906013010 86 34 0.0 0.0 0.00 0.00 0.00 66 1010.1
20260906011533 86 34 0.0 0.0 0.00 0.00 0.00 65 1009.9
20260906010125 87 34 0.0 0.0 0.00 0.00 0.00 64 1009.6
20260906004518 88 34 0.0 0.0 0.00 0.00 0.00 62 1009.6
20260906003035 89 34 0.0 0.0 0.00 0.00 0.00 61 1009.6
20260906001509 90 34 0.0 0.0 0.00 0.00 0.00 58 1009.5
20260906000036 92 34 0.0 0.0 0.00 0.00 0.00 55 1009.6
20260905234552 94 34 0.0 0.0 0.00 0.00 0.00 53 1009.7
20260905233023 96 34 0.0 0.0 0.00 0.00 0.00 49 1009.7
20260905231555 98 5 0.0 2.0 0.00 0.00 0.00 47 1009.8
20260905230021 98 315 0.0 1.0 0.00 0.00 0.00 46 1009.8
20260905224537 99 13 0.0 2.0 0.00 0.00 0.00 46 1009.8
20260905223057 99 337 0.0 2.0 0.00 0.00 0.00 46 1009.7
20260905221523 100 200 1.0 4.0 0.00 0.00 0.00 47 1009.8
20260905220058 101 42 0.0 7.0 0.00 0.00 0.00 45 1009.8
20260905214513 102 111 1.0 3.0 0.00 0.00 0.00 41 1009.7
20260905213034 103 39 1.0 4.0 0.00 0.00 0.00 41 1009.7
20260905211547 102 101 0.0 8.0 0.00 0.00 0.00 41 1009.8
20260905210005 102 35 1.0 3.0 0.00 0.00 0.00 40 1010.0
20260905204517 103 59 1.0 8.0 0.00 0.00 0.00 41 1010.3
20260905203039 100 84 1.0 5.0 0.00 0.00 0.00 44 1010.5
20260905201521 104 113 1.0 5.0 0.00 0.00 0.00 40 1010.8
20260905200059 103 101 2.0 5.0 0.00 0.00 0.00 41 1010.8
20260905194552 103 88 0.0 6.0 0.00 0.00 0.00 40 1011.3
20260905193017 99 238 0.0 4.0 0.00 0.00 0.00 43 1011.5
20260905191600 104 302 2.0 10.0 0.00 0.00 0.00 42 1011.6
20260905191502 104 92 2.0 5.0 0.00 0.00 0.00 42 1011.6
20260905190018 103 62 2.0 7.0 0.00 0.00 0.00 44 1011.8
20260905184548 103 348 1.0 11.0 0.00 0.00 0.00 43 1011.9
20260905183046 102 115 1.0 6.0 0.00 0.00 0.00 45 1011.9
20260905181510 99 321 1.0 4.0 0.00 0.00 0.00 46 1012.2
20260905180037 99 348 0.0 3.0 0.00 0.00 0.00 47 1012.3
20260905174510 98 43 1.0 5.0 0.00 0.00 0.00 48 1012.5
20260905173038 99 306 1.0 3.0 0.00 0.00 0.00 48 1012.6
20260905171545 101 346 1.0 4.0 0.00 0.00 0.00 46 1012.7
20260905170021 99 285 1.0 4.0 0.00 0.00 0.00 47 1012.8
20260905164544 98 360 1.0 4.0 0.00 0.00 0.00 48 1012.9
20260905163052 97 306 1.0 6.0 0.00 0.00 0.00 51 1013.2
20260905161508 96 288 0.0 7.0 0.00 0.00 0.00 57 1013.4
20260905160028 95 271 3.0 5.0 0.00 0.00 0.00 55 1013.5
20260905154546 93 318 0.0 3.0 0.00 0.00 0.00 58 1013.4
20260905153014 93 5 1.0 3.0 0.00 0.00 0.00 59 1013.4
20260905151548 91 347 0.0 2.0 0.00 0.00 0.00 62 1013.4
20260905150057 90 250 0.0 3.0 0.00 0.00 0.00 62 1013.5
20260905144518 88 279 1.0 3.0 0.00 0.00 0.00 66 1013.4
20260905143054 87 293 1.0 3.0 0.00 0.00 0.00 67 1013.3
20260905141514 86 325 0.0 2.0 0.00 0.00 0.00 70 1013.4
20260905140033 85 301 0.0 0.0 0.00 0.00 0.00 72 1013.3
20260905134536 84 96 0.0 0.0 0.00 0.00 0.00 74 1013.3
20260905133011 82 96 0.0 0.0 0.00 0.00 0.00 76 1013.3
20260905131540 81 96 0.0 1.0 0.00 0.00 0.00 81 1013.2
20260905130018 79 96 0.0 0.0 0.00 0.00 0.00 85 1013.2
20260905124521 78 96 0.0 0.0 0.00 0.00 0.00 86 1013.3
20260905123040 77 138 0.0 0.0 0.00 0.00 0.00 87 1013.2
20260905121515 77 138 0.0 0.0 0.00 0.00 0.00 87 1013.0
20260905120057 76 138 0.0 0.0 0.00 0.00 0.00 88 1013.0
20260905114547 76 138 0.0 0.0 0.00 0.00 0.00 88 1013.1
20260905113048 76 138 0.0 0.0 0.00 0.00 0.00 87 1012.8
20260905111528 76 138 0.0 0.0 0.00 0.00 0.00 87 1012.8
20260905110018 76 138 0.0 0.0 0.00 0.00 0.00 86 1012.6
20260905104511 77 138 0.0 0.0 0.00 0.00 0.00 86 1012.5
20260905103052 77 138 0.0 0.0 0.00 0.00 0.00 85 1012.5
20260905101521 77 138 0.0 0.0 0.00 0.00 0.00 85 1012.3
20260905100026 77 138 0.0 0.0 0.00 0.00 0.00 85 1012.4
20260905094555 77 138 0.0 0.0 0.00 0.00 0.00 84 1012.4
20260905093053 77 138 0.0 0.0 0.00 0.00 0.00 84 1012.2
20260905091544 77 138 0.0 0.0 0.00 0.00 0.00 83 1012.4
20260905090049 78 138 0.0 0.0 0.00 0.00 0.00 83 1012.3
20260905084511 78 138 0.0 0.0 0.00 0.00 0.00 83 1012.3
20260905083044 78 138 0.0 0.0 0.00 0.00 0.00 82 1012.4
20260905081557 78 138 0.0 0.0 0.00 0.00 0.00 81 1012.4
20260905080027 78 138 0.0 0.0 0.00 0.00 0.00 81 1012.4
20260905074536 79 138 0.0 0.0 0.00 0.00 0.00 80 1012.5
20260905073053 79 138 0.0 0.0 0.00 0.00 0.00 79 1012.6
20260905071521 79 140 0.0 0.0 0.00 0.00 0.00 79 1012.6
20260905070041 80 140 0.0 0.0 0.00 0.00 0.00 78 1012.7
20260905064509 80 140 0.0 0.0 0.00 0.00 0.00 77 1012.6
20260905063011 80 140 0.0 0.0 0.00 0.00 0.00 76 1012.7
20260905061525 81 140 0.0 0.0 0.00 0.00 0.00 75 1012.5